Weather History for Soldotna, AK

Change the Weather History Date:

Monday, November 26, 2012

  Actual Average Record
Temperature  
Mean Temperature 2 °F -  
Max Temperature 8 °F 26 °F 48 °F (2002)
Min Temperature -5 °F 11 °F -15 °F (1961)
Degree Days  
Heating Degree Days 64    
Moisture  
Dew Point -3 °F    
Average Humidity 85    
Maximum Humidity 100    
Minimum Humidity 55    
Precipitation  
Precipitation 0.00 in - - ()
Sea Level Pressure  
Sea Level Pressure 30.26 in    
Wind  
Wind Speed 3 mph (East)    
Max Wind Speed 6 mph    
Max Gust Speed -    
Visibility 10 miles    
Events      
Averages and records for this station are not official NWS values.
T = Trace of Precipitation, MM = Missing Value Source: NWS Daily Summary

Daily Weather History Graph

Daily Weather History Graph

Search for Another Location

Airport:

Trip Planner

Search our weather history database for the weather conditions in past years. The results will help you decide how hot, cold, wet, or windy it might be!

Date:

Astronomy

Nov. 26, 2012 Rise Set
Actual Time 9:33 AM AKST 4:08 PM AKST
Civil Twilight 8:39 AM AKST 5:03 PM AKST
Nautical Twilight 7:44 AM AKST 5:58 PM AKST
Astronomical Twilight 6:53 AM AKST 6:49 PM AKST
Moon 3:21 PM AKST (11/26) 7:36 AM AKST (11/26)
Length of Visible Light 8h 23m
Length of Day
6h 35m
Waxing Gibbous, 97% of the Moon is Illuminated
Nov 26
Waxing Gibbous
Nov 28
Full
Dec 6
Last Quarter
Dec 12
New
Dec 19
First Quarter

Hourly Weather History & Observations

Time (AKST) Temp. Windchill Dew Point Humidity Pressure Visibility Wind Dir Wind Speed Gust Speed Precip Events Conditions
12:16 AM -4.0 °F - -11.2 °F 71% 30.23 in 10.0 mi Calm Calm - N/A   Clear
12:36 AM -2.2 °F -14.2 °F -2.2 °F 100% 30.23 in 10.0 mi East 5.8 mph - N/A   Clear
12:56 AM -0.4 °F -12.0 °F -2.2 °F 92% 30.23 in 10.0 mi East 5.8 mph - N/A   Clear
1:16 AM 1.4 °F -8.3 °F -2.2 °F 85% 30.24 in 10.0 mi East 4.6 mph - N/A   Clear
1:36 AM 1.4 °F -8.3 °F -2.2 °F 85% 30.25 in 10.0 mi ENE 4.6 mph - N/A   Clear
1:56 AM -0.4 °F -8.3 °F -13.0 °F 55% 30.25 in 10.0 mi ENE 3.5 mph - N/A   Clear
2:16 AM -0.4 °F -10.4 °F -2.2 °F 92% 30.25 in 10.0 mi East 4.6 mph - N/A   Clear
2:36 AM -2.2 °F -12.5 °F -5.8 °F 85% 30.25 in 10.0 mi East 4.6 mph - N/A   Clear
2:56 AM -0.4 °F -12.0 °F -5.8 °F 78% 30.25 in 10.0 mi ENE 5.8 mph - N/A   Clear
3:16 AM -0.4 °F -8.3 °F -4.0 °F 85% 30.25 in 10.0 mi East 3.5 mph - N/A   Clear
3:36 AM -2.2 °F -12.5 °F -7.6 °F 78% 30.26 in 10.0 mi ENE 4.6 mph - N/A   Clear
3:56 AM -2.2 °F -10.4 °F -5.8 °F 85% 30.26 in 10.0 mi ENE 3.5 mph - N/A   Clear
4:16 AM -5.8 °F -14.5 °F -11.2 °F 77% 30.26 in 10.0 mi ENE 3.5 mph - N/A   Clear
4:36 AM -5.8 °F -14.5 °F -7.6 °F 92% 30.26 in 10.0 mi ENE 3.5 mph - N/A   Clear
4:56 AM -2.2 °F -12.5 °F -5.8 °F 85% 30.27 in 10.0 mi East 4.6 mph - N/A   Clear
5:16 AM -2.2 °F -10.4 °F -7.6 °F 78% 30.27 in 10.0 mi ENE 3.5 mph - N/A   Clear
5:36 AM -5.8 °F -14.5 °F -9.4 °F 84% 30.27 in 10.0 mi ENE 3.5 mph - N/A   Scattered Clouds
5:56 AM -4.0 °F -14.6 °F -5.8 °F 92% 30.27 in 10.0 mi East 4.6 mph - N/A   Partly Cloudy
6:16 AM -4.0 °F -14.6 °F -9.4 °F 78% 30.27 in 10.0 mi ENE 4.6 mph - N/A   Partly Cloudy
6:36 AM -4.0 °F -16.3 °F -7.6 °F 85% 30.27 in 10.0 mi East 5.8 mph - N/A   Partly Cloudy
6:56 AM -4.0 °F -12.4 °F -7.6 °F 85% 30.28 in 10.0 mi East 3.5 mph - N/A   Partly Cloudy
7:16 AM -4.0 °F -12.4 °F -7.6 °F 85% 30.28 in 10.0 mi East 3.5 mph - N/A   Clear
7:36 AM -5.8 °F -18.4 °F -11.2 °F 77% 30.28 in 10.0 mi East 5.8 mph - N/A   Clear
7:56 AM -2.2 °F -12.5 °F -5.8 °F 85% 30.29 in 10.0 mi East 4.6 mph - N/A   Clear
8:16 AM -2.2 °F -10.4 °F -5.8 °F 85% 30.29 in 10.0 mi East 3.5 mph - N/A   Clear
8:36 AM -4.0 °F -12.4 °F -7.6 °F 85% 30.29 in 10.0 mi East 3.5 mph - N/A   Clear
8:56 AM -5.8 °F - -7.6 °F 92% 30.29 in 10.0 mi Calm Calm - N/A   Clear
9:16 AM -4.0 °F -12.4 °F -5.8 °F 92% 30.29 in 10.0 mi East 3.5 mph - N/A   Clear
9:36 AM -5.8 °F -16.7 °F -9.4 °F 84% 30.29 in 10.0 mi East 4.6 mph - N/A   Clear
9:56 AM -4.0 °F -14.6 °F -5.8 °F 92% 30.30 in 10.0 mi East 4.6 mph - N/A   Clear
10:16 AM -4.0 °F -14.6 °F -9.4 °F 78% 30.30 in 10.0 mi East 4.6 mph - N/A   Clear
10:36 AM -2.2 °F -10.4 °F -5.8 °F 85% 30.31 in 10.0 mi ENE 3.5 mph - N/A   Clear
10:56 AM -2.2 °F - -5.8 °F 85% 30.31 in 10.0 mi Calm Calm - N/A   Clear
11:16 AM -0.4 °F -8.3 °F -2.2 °F 92% 30.31 in 10.0 mi East 3.5 mph - N/A   Clear
11:36 AM -0.4 °F - -2.2 °F 92% 30.31 in 10.0 mi Calm Calm - N/A   Clear
11:56 AM -0.4 °F - -4.0 °F 85% 30.31 in 10.0 mi Calm Calm - N/A   Clear
12:16 PM -0.4 °F -8.3 °F -0.4 °F 100% 30.30 in 10.0 mi ESE 3.5 mph - N/A   Clear
12:36 PM 1.4 °F -6.2 °F -0.4 °F 92% 30.30 in 10.0 mi East 3.5 mph - N/A   Clear
12:56 PM 1.4 °F - -0.4 °F 92% 30.30 in 10.0 mi Calm Calm - N/A   Clear
1:16 PM 3.2 °F -4.2 °F 1.4 °F 92% 30.30 in 10.0 mi East 3.5 mph - N/A   Scattered Clouds
1:36 PM 6.8 °F -2.0 °F 5.0 °F 92% 30.29 in 10.0 mi East 4.6 mph - N/A   Partly Cloudy
1:56 PM 6.8 °F -3.5 °F 3.2 °F 85% 30.29 in 10.0 mi East 5.8 mph - N/A   Clear
2:16 PM 8.6 °F 2.0 °F 5.0 °F 85% 30.29 in 10.0 mi ENE 3.5 mph - N/A   Clear
2:36 PM 6.8 °F - 3.2 °F 85% 30.29 in 10.0 mi Calm Calm - N/A   Clear
2:56 PM 8.6 °F 0.1 °F 6.8 °F 92% 30.28 in 10.0 mi East 4.6 mph - N/A   Clear
3:16 PM 8.6 °F 0.1 °F 5.0 °F 85% 30.28 in 10.0 mi East 4.6 mph - N/A   Clear
3:36 PM 8.6 °F 0.1 °F 5.0 °F 85% 30.28 in 10.0 mi East 4.6 mph - N/A   Clear
3:56 PM 6.8 °F -2.0 °F 1.4 °F 79% 30.28 in 10.0 mi East 4.6 mph - N/A   Clear
4:16 PM 8.6 °F 0.1 °F 3.2 °F 79% 30.27 in 10.0 mi East 4.6 mph - N/A   Clear
4:36 PM 5.0 °F -4.1 °F -0.4 °F 78% 30.26 in 10.0 mi East 4.6 mph - N/A   Clear
4:56 PM 6.8 °F -0.1 °F 3.2 °F 85% 30.26 in 10.0 mi East 3.5 mph - N/A   Clear
5:16 PM 5.0 °F - 3.2 °F 92% 30.26 in 10.0 mi Calm Calm - N/A   Clear
5:36 PM 1.4 °F - -5.8 °F 72% 30.26 in 10.0 mi Calm Calm - N/A   Clear
5:56 PM 1.4 °F - -0.4 °F 92% 30.26 in 10.0 mi Calm Calm - N/A   Clear
6:16 PM 1.4 °F - -0.4 °F 92% 30.26 in 10.0 mi Calm Calm - N/A   Clear
6:36 PM 1.4 °F -6.2 °F -4.0 °F 78% 30.25 in 10.0 mi East 3.5 mph - N/A   Clear
6:56 PM -0.4 °F -8.3 °F -4.0 °F 85% 30.25 in 10.0 mi East 3.5 mph - N/A   Clear
7:16 PM 1.4 °F -8.3 °F -0.4 °F 92% 30.25 in 10.0 mi East 4.6 mph - N/A   Clear
7:36 PM 3.2 °F -6.2 °F 1.4 °F 92% 30.24 in 10.0 mi East 4.6 mph - N/A   Clear
7:56 PM 1.4 °F -9.9 °F -2.2 °F 85% 30.24 in 10.0 mi East 5.8 mph - N/A   Clear
8:16 PM 1.4 °F -8.3 °F -0.4 °F 92% 30.23 in 10.0 mi East 4.6 mph - N/A   Clear
8:36 PM 1.4 °F -8.3 °F -0.4 °F 92% 30.23 in 10.0 mi East 4.6 mph - N/A   Clear
8:56 PM 1.4 °F -6.2 °F -0.4 °F 92% 30.23 in 10.0 mi East 3.5 mph - N/A   Clear
9:16 PM -0.4 °F -10.4 °F -2.2 °F 92% 30.23 in 10.0 mi East 4.6 mph - N/A   Clear
9:36 PM -0.4 °F -10.4 °F -5.8 °F 78% 30.22 in 10.0 mi East 4.6 mph - N/A   Clear
9:56 PM -0.4 °F -10.4 °F -2.2 °F 92% 30.21 in 10.0 mi East 4.6 mph - N/A   Clear
10:16 PM -2.2 °F -12.5 °F -5.8 °F 85% 30.21 in 10.0 mi East 4.6 mph - N/A   Clear
10:36 PM -0.4 °F -10.4 °F -4.0 °F 85% 30.21 in 10.0 mi East 4.6 mph - N/A   Clear
10:56 PM -0.4 °F -8.3 °F -5.8 °F 78% 30.20 in 10.0 mi East 3.5 mph - N/A   Scattered Clouds
11:16 PM -0.4 °F - -4.0 °F 85% 30.21 in 10.0 mi Calm Calm - N/A   Scattered Clouds
11:36 PM -0.4 °F -8.3 °F -5.8 °F 78% 30.20 in 10.0 mi East 3.5 mph - N/A   Scattered Clouds
11:56 PM -2.2 °F - -7.6 °F 78% 30.19 in 10.0 mi Calm Calm - N/A   Clear